Location: Eekwerd
(53.3234°N, 6.7984°E)
Time: 10:49:32
(UTC+00:00)

PSLV R/B - Pass Details

Date: 15 May 2026
Orbit: 585 x 678 km, 97.9° (Epoch: 5 June)

Event Time Altitude Azimuth Distance (km) Brightness Sun altitude
Rises 23:09:03 0° 15° (NNE) 2,870 8.3 -17.5°
Reaches altitude 10° 23:11:12 10° 16° (NNE) 1,974 7.2 -17.5°
Maximum altitude 23:15:31 81° 105° (ESE) 636 3.5 -17.6°
Enters shadow 23:17:17 36° 188° (S) 1,003 4.1 -17.6°
